Location: *
(50.3194°N, 7.1067°E)
Time: 18:29:48
(UTC+00:00)

USA 186 - Pass Details

Date: 22 September 2019
Orbit: 261 x 450 km, 96.9° (Epoch: 07 October)

Event Time Altitude Azimuth Distance (km) Brightness Sun altitude
Exits shadow 18:05:08 - 129° (SE) 2,011 4.7 -6.3°
Reaches altitude 10° 18:06:19 10° 119° (ESE) 1,589 4.1 -6.5°
Maximum altitude 18:09:02 22° 67° (ENE) 1,032 3.2 -6.9°
Drops below altitude 10° 18:11:45 10° 14° (NNE) 1,587 4.6 -7.4°
Sets 18:14:03 0° 359° (N) 2,447 5.8 -7.7°
